Find Starlink 5519

NORAD ID: 57223 Int'l Des: 2023-094 Owner: SPXS Country: US Constellation: starlink operational
LEOCIRCULAR

現在のビュー

3D地球を読み込み中...

About Starlink 5519

Starlink 5519 (NORAD 57223) is a starlink constellation satellite (v1.5) launched Jul 7, 2023 by SPXS of US. It operates in LEO, CIRCULAR orbit with a mass of 305.00 kg.

次回通過

Passes for default location (London). Set your location on the main map for personalized predictions.

高度履歴

Loading altitude history...

軌道要素

1 57223U 23094F 26265.27739484 .00000223 00000-0 17655-4 0 9997
2 57223 43.0044 3.6873 0001930 293.5951 66.4698 15.27574641177141
Epoch: Sep 22, 2026 • Age: 17 hours

現在のステータス

高度 489.9 km
遠地点 / 近地点 N/A
速度 7.62 km/s
衛星直下点 -30.14°S, 36.13°W
打ち上げ日 Jul 7, 2023
運用期間 3.2 years
タイプ internet

技術仕様

分類 Payload
質量 305.00 kg
乾燥質量 290.00 kg
長さ 0.20 m
スパン 9.00 m
形状 ? Box + pan
製造者 SPXS
バスタイプ Starlink
フェーズステータス In Orbit
所有者/国 SPXS/US

Most Searched